Location: Newark
(50.0953°N, 2.1719°E)
Time: 20:58:21
(UTC+00:00)

N. Korean satellite - Pass Details

Date: 26 January 2020
Orbit: 456 x 505 km, 97.2° (Epoch: 26 February)

Event Time Altitude Azimuth Distance (km) Brightness Sun altitude
Rises 06:49:40 0° 0° (N) 2,537 10.0 -7.3°
Reaches altitude 10° 06:52:05 10° 344° (NNW) 1,663 8.9 -6.9°
Maximum altitude 06:54:46 20° 295° (WNW) 1,161 7.9 -6.5°
Drops below altitude 10° 06:57:28 10° 246° (WSW) 1,674 8.9 -6.1°
Sets 06:59:54 0° 230° (SW) 2,560 10.0 -5.7°
